AA8FM-13 Weather Reports


time (UTC)temp
C
wind
direction
speed
KPH
gust
KPH
rain 1hr
cm
rain 24hr
cm
rain mn
cm
humidity
%
barometer
mb
20260505035931 16 279 0.0 0.0 0.00 0.00 0.00 69 1006.5
20260505035427 16 270 0.0 0.0 0.00 0.00 0.00 69 1006.7
20260505034924 16 289 0.0 0.0 0.00 0.00 0.00 69 1006.6
20260505034420 16 265 0.0 0.0 0.00 0.00 0.00 68 1006.6
20260505033917 16 295 0.0 0.0 0.00 0.00 0.00 67 1006.5
20260505033414 16 274 0.0 0.0 0.00 0.00 0.00 68 1006.7
20260505032913 16 278 0.0 0.0 0.00 0.00 0.00 70 1006.6
20260505032409 16 282 0.0 0.0 0.00 0.00 0.00 71 1006.5
20260505031906 16 289 0.0 0.0 0.00 0.00 0.00 70 1006.7
20260505031403 15 282 0.0 0.0 0.00 0.00 0.00 70 1006.6
20260505030900 15 260 0.0 0.0 0.00 0.00 0.00 71 1006.5
20260505030355 15 293 0.0 0.0 0.00 0.00 0.00 71 1006.7
20260505025851 15 279 0.0 0.0 0.00 0.00 0.00 72 1006.7
20260505025349 15 249 0.0 0.0 0.00 0.00 0.00 71 1006.6
20260505024848 15 256 0.0 0.0 0.00 0.00 0.00 73 1006.5
20260505024345 15 253 0.0 0.0 0.00 0.00 0.00 72 1006.7
20260505023842 15 213 0.0 0.0 0.00 0.00 0.00 73 1006.8
20260505023339 15 317 0.0 0.0 0.00 0.00 0.00 73 1006.8
20260505022836 15 254 0.0 0.0 0.00 0.00 0.00 73 1006.9
20260505022333 15 244 0.0 0.0 0.00 0.00 0.00 73 1006.7
20260505021830 15 225 0.0 0.0 0.00 0.00 0.00 74 1006.7
20260505021327 15 279 0.0 0.0 0.00 0.00 0.00 72 1006.6
20260505020822 15 279 0.0 0.0 0.00 0.00 0.00 71 1006.7
20260505020318 15 279 0.0 0.0 0.00 0.00 0.00 72 1006.9
20260505015815 15 257 0.0 0.0 0.00 0.00 0.00 72 1006.9
20260505015312 16 265 0.0 0.0 0.00 0.00 0.00 69 1006.7
20260505014810 16 278 0.0 0.0 0.00 0.00 0.00 70 1007.1
20260505014307 16 264 0.0 0.0 0.00 0.00 0.00 69 1006.9
20260505013803 16 267 0.0 0.0 0.00 0.00 0.00 68 1006.9
20260505013300 16 316 0.0 0.0 0.00 0.00 0.00 66 1006.9
20260505012758 16 294 0.0 0.0 0.00 0.00 0.00 67 1006.9
20260505012256 17 304 0.0 0.0 0.00 0.00 0.00 66 1006.7
20260505011751 17 247 0.0 0.0 0.00 0.00 0.00 66 1006.7
20260505011248 17 252 0.0 0.0 0.00 0.00 0.00 64 1007.1
20260505010744 17 230 0.0 0.0 0.00 0.00 0.00 63 1007.1
20260505010240 17 240 0.0 0.0 0.00 0.00 0.00 64 1006.9
20260505005737 18 229 0.0 0.0 0.00 0.00 0.00 63 1006.8
20260505005234 18 235 0.0 0.0 0.00 0.00 0.00 61 1006.7
20260505004731 18 177 0.0 0.0 0.00 0.00 0.00 61 1006.7
20260505004228 18 242 0.0 0.0 0.00 0.00 0.00 59 1006.9
20260505003725 18 237 0.0 0.0 0.00 0.00 0.00 60 1006.7
20260505003223 19 219 0.0 0.0 0.00 0.00 0.00 57 1006.9
20260505002718 19 198 0.0 0.0 0.00 0.00 0.00 57 1006.8
20260505002216 20 172 1.6 3.2 0.00 0.00 0.00 56 1006.8
20260505001714 20 183 0.0 0.0 0.00 0.00 0.00 57 1006.8
20260505001211 20 142 1.6 3.2 0.00 0.00 0.00 56 1006.7
20260505000708 20 40 1.6 3.2 0.00 0.00 0.00 55 1006.8
20260505000206 20 159 9.7 12.9 0.00 0.00 0.00 54 1006.5
20260504235702 20 58 1.6 1.6 0.00 0.00 0.00 55 1006.5
20260504235158 20 64 1.6 3.2 0.00 0.00 0.00 54 1006.6
20260504234656 20 186 1.6 3.2 0.00 0.00 0.00 54 1006.8
20260504234153 20 270 0.0 0.0 0.00 0.00 0.00 55 1006.5
20260504233649 20 260 0.0 0.0 0.00 0.00 0.00 54 1006.5
20260504233144 20 11 4.8 6.4 0.00 0.00 0.00 53 1006.6
20260504232643 21 19 3.2 4.8 0.00 0.00 0.00 53 1006.5
20260504232139 21 203 3.2 3.2 0.00 0.00 0.00 52 1006.4
20260504231636 21 285 1.6 1.6 0.00 0.00 0.00 51 1006.5
20260504231132 21 191 0.0 0.0 0.00 0.00 0.00 51 1006.4
20260504230629 21 19 9.7 12.9 0.00 0.00 0.00 51 1006.5
20260504230127 21 172 0.0 1.6 0.00 0.00 0.00 53 1006.4
20260504225625 21 215 1.6 3.2 0.00 0.00 0.00 55 1006.6
20260504225121 21 339 3.2 4.8 0.00 0.00 0.00 54 1006.5
20260504224618 21 24 1.6 4.8 0.00 0.00 0.00 53 1006.2
20260504224115 21 195 3.2 3.2 0.00 0.00 0.00 53 1006.5
20260504223612 21 235 0.0 0.0 0.00 0.00 0.00 53 1006.3
20260504223108 21 102 9.7 14.5 0.00 0.00 0.00 53 1006.4
20260504222605 21 110 0.0 0.0 0.00 0.00 0.00 53 1006.6
20260504222102 21 177 0.0 1.6 0.00 0.00 0.00 54 1006.4
20260504221559 21 99 4.8 4.8 0.00 0.00 0.00 51 1006.7
20260504221056 21 311 3.2 6.4 0.00 0.00 0.00 54 1006.7
20260504220552 21 122 3.2 6.4 0.00 0.00 0.00 53 1006.5
20260504220049 21 254 4.8 6.4 0.00 0.00 0.00 51 1006.8
20260504215546 21 54 1.6 1.6 0.00 0.00 0.00 51 1006.7
20260504215044 21 212 0.0 0.0 0.00 0.00 0.00 52 1006.6
20260504214539 22 180 9.7 11.3 0.00 0.00 0.00 50 1006.4
20260504214036 21 300 0.0 1.6 0.00 0.00 0.00 49 1006.3
20260504213532 21 221 0.0 1.6 0.00 0.00 0.00 53 1006.6
20260504213030 21 144 8.0 11.3 0.00 0.00 0.00 52 1006.3
20260504212525 21 223 0.0 1.6 0.00 0.00 0.00 54 1006.5
20260504212023 21 125 1.6 3.2 0.00 0.00 0.00 52 1006.4
20260504211520 21 347 3.2 4.8 0.00 0.00 0.00 53 1006.7
20260504211017 21 162 1.6 1.6 0.00 0.00 0.00 53 1006.3
20260504210513 21 70 3.2 4.8 0.00 0.00 0.00 52 1006.7
20260504210010 21 144 0.0 1.6 0.00 0.00 0.00 51 1006.6
20260504205508 21 348 4.8 9.7 0.00 0.00 0.00 51 1006.4
20260504205006 21 359 3.2 6.4 0.00 0.00 0.00 52 1006.2
20260504204504 21 11 3.2 4.8 0.00 0.00 0.00 51 1006.3
20260504204003 21 111 1.6 1.6 0.00 0.00 0.00 51 1006.3
20260504203500 21 354 4.8 6.4 0.00 0.00 0.00 51 1006.5
20260504202956 22 116 3.2 4.8 0.00 0.00 0.00 50 1006.6
20260504202452 22 155 1.6 3.2 0.00 0.00 0.00 49 1006.4
20260504201949 22 335 6.4 9.7 0.00 0.00 0.00 50 1006.5
20260504201447 22 350 0.0 0.0 0.00 0.00 0.00 50 1006.5
20260504200944 21 152 8.0 12.9 0.00 0.00 0.00 52 1006.6
20260504200441 21 106 3.2 4.8 0.00 0.00 0.00 50 1006.7
20260504195937 21 105 3.2 4.8 0.00 0.00 0.00 50 1006.7
20260504195433 21 272 0.0 1.6 0.00 0.00 0.00 51 1006.6
20260504194930 21 143 8.0 16.1 0.00 0.00 0.00 49 1006.8
20260504194426 22 288 4.8 9.7 0.00 0.00 0.00 51 1006.5
20260504193922 21 179 0.0 1.6 0.00 0.00 0.00 51 1006.5
20260504193419 21 165 14.5 25.7 0.00 0.00 0.00 49 1006.7
20260504192918 21 66 1.6 1.6 0.00 0.00 0.00 52 1006.6
20260504192415 22 259 1.6 3.2 0.00 0.00 0.00 52 1006.8
20260504191914 21 207 4.8 9.7 0.00 0.00 0.00 50 1006.6
20260504191411 22 183 9.7 24.1 0.00 0.00 0.00 50 1006.8
20260504190906 21 218 6.4 11.3 0.00 0.00 0.00 52 1006.6
20260504190402 21 158 9.7 12.9 0.00 0.00 0.00 54 1006.6
20260504185859 21 129 6.4 9.7 0.00 0.00 0.00 51 1007.2
20260504185356 21 91 3.2 6.4 0.00 0.00 0.00 53 1007.2
20260504184852 21 64 3.2 4.8 0.00 0.00 0.00 52 1007.3
20260504184348 21 211 9.7 14.5 0.00 0.00 0.00 53 1007.3
20260504183844 21 279 1.6 3.2 0.00 0.00 0.00 51 1007.3
20260504183342 21 244 0.0 0.0 0.00 0.00 0.00 54 1007.4
20260504182839 21 175 9.7 14.5 0.00 0.00 0.00 52 1007.6
20260504182337 20 344 1.6 4.8 0.00 0.00 0.00 55 1007.5
20260504181833 20 180 0.0 1.6 0.00 0.00 0.00 55 1007.7
20260504181331 20 99 1.6 4.8 0.00 0.00 0.00 54 1007.8
20260504180830 20 206 1.6 1.6 0.00 0.00 0.00 55 1007.7
20260504180328 20 143 14.5 17.7 0.00 0.00 0.00 56 1007.7
20260504175826 20 40 0.0 1.6 0.00 0.00 0.00 56 1007.9
20260504175322 20 295 1.6 4.8 0.00 0.00 0.00 55 1008.0
20260504174821 20 96 3.2 6.4 0.00 0.00 0.00 56 1007.9
20260504174317 19 60 4.8 11.3 0.00 0.00 0.00 56 1008.1
20260504173814 20 75 6.4 11.3 0.00 0.00 0.00 56 1008.1
20260504173311 20 184 3.2 3.2 0.00 0.00 0.00 58 1008.1
20260504172808 19 179 8.0 11.3 0.00 0.00 0.00 55 1008.2
20260504172305 19 146 3.2 4.8 0.00 0.00 0.00 55 1008.1
20260504171800 19 135 8.0 12.9 0.00 0.00 0.00 56 1008.4
20260504171258 19 355 9.7 16.1 0.00 0.00 0.00 57 1008.3
20260504170755 18 159 14.5 22.5 0.00 0.00 0.00 57 1008.5
20260504170252 18 132 11.3 17.7 0.00 0.00 0.00 58 1008.5
20260504160210 19 355 6.4 6.4 0.00 0.00 0.00 53 1009.3
20260504151138 18 317 3.2 4.8 0.00 0.00 0.00 54 1009.9
20260504150636 18 165 3.2 4.8 0.00 0.00 0.00 54 1009.6
20260504150132 18 82 6.4 9.7 0.00 0.00 0.00 52 1010.1
20260504141101 16 93 3.2 4.8 0.00 0.00 0.00 54 1010.1
20260504140558 16 145 1.6 3.2 0.00 0.00 0.00 53 1010.0
20260504130522 14 59 3.2 4.8 0.00 0.00 0.00 55 1010.0
20260504110409 10 168 1.6 1.6 0.00 0.00 0.00 76 1010.7
20260504100326 9 214 0.0 0.0 0.00 0.00 0.00 72 1010.8
20260504081720 10 305 0.0 1.6 0.00 0.00 0.00 72 1011.4
20260504081216 10 182 1.6 1.6 0.00 0.00 0.00 66 1011.5
20260504080713 10 207 0.0 0.0 0.00 0.00 0.00 67 1011.6
20260504080209 10 162 1.6 1.6 0.00 0.00 0.00 65 1011.5
20260504070137 10 261 0.0 0.0 0.00 0.00 0.00 61 1011.6
20260504050526 8 248 0.0 0.0 0.00 0.00 0.00 63 1012.0
20260504050022 8 250 0.0 0.0 0.00 0.00 0.00 64 1011.7
20260504045519 8 254 0.0 0.0 0.00 0.00 0.00 65 1012.0
20260504045015 8 253 0.0 0.0 0.00 0.00 0.00 65 1012.0
20260504044513 8 249 0.0 0.0 0.00 0.00 0.00 65 1012.0
20260504044009 8 256 0.0 0.0 0.00 0.00 0.00 64 1012.0
20260504043506 9 256 0.0 0.0 0.00 0.00 0.00 62 1012.0
20260504043004 10 242 0.0 0.0 0.00 0.00 0.00 64 1011.9
20260504042500 10 230 0.0 0.0 0.00 0.00 0.00 59 1011.9
20260504041957 10 228 0.0 0.0 0.00 0.00 0.00 61 1011.9
20260504041453 10 235 0.0 0.0 0.00 0.00 0.00 65 1012.1
20260504040949 10 233 0.0 0.0 0.00 0.00 0.00 65 1012.0
20260504040447 10 269 0.0 0.0 0.00 0.00 0.00 65 1012.0